Location: Unspecified
(0.0000°N, 0.0000°E)
Time: 21:08:01
(UTC+00:00)

Delta IV Demo - Visible Passes

Search period start: 21 April 2019 00:00
Search period end: 01 May 2019 00:00
Orbit: 17876 x 36456 km, 16.5° (Epoch: 18 April)

Date Brightness Start Highest point End Pass type
(mag) Time Alt. Az. Time Alt. Az. Time Alt. Az.
23 Apr 10.5 02:33:51 10° W 05:51:19 69° S 20:51:43 10° E visible
25 Apr 10.9 07:45:19 10° WSW 12:17:27 61° W 02:13:36 10° ESE visible
26 Apr 11.9 09:25:44 10° ENE 10:55:00 12° ENE 12:10:26 10° ENE visible
27 Apr 12.2 14:46:35 10° W 15:15:47 10° W 15:47:38 10° W visible
28 Apr 10.4 00:30:06 10° WNW 03:53:19 69° S 19:07:18 13° E visible
